カタログに戻る

THORAD DELTA 1 DEB

運用中SSO
NORAD 8184·DEBRIS·🇺🇸 United States

打ち上げ Nov 15, 1974 から Vandenberg Space Force Base

Loading…

次のパス (今後24時間)

TLE

最新Source: Space-Track

元期: Sep 14, 2026, 07:38 UTC

1 08184U 74089BA  26257.31810396 -.00000032  00000-0  75202-4 0  9998
2 08184 101.5523 214.9206 0063418 301.3616 221.0054 12.47613896360028

AllMySatでTHORAD DELTA 1 DEBをリアルタイム追跡

Download on the App Store